Location: Antioch Church
(34.9543°N, 88.5145°W)
Time: 11:38:41
(UTC+00:00)

STARLINK 1025 - Pass Details

Date: 11 December 2019
Orbit: 345 x 354 km, 53.0° (Epoch: 27 January)

Event Time Altitude Azimuth Distance (km) Brightness Sun altitude
Exits shadow 09:54:18 - 67° (ENE) 2,194 7.5 -35.5°
Enters shadow 10:50:15 -68° 294° (WNW) 12,170 10.5 -24.2°
Maximum altitude 11:26:42 35° 40° (NE) 582 3.9 -16.9°
